Ames, IA

10:18 AM CDT on June 28, 2017 (GMT -0500)
Ames Municipal

Weather History for KAMW - August, 2013

Change the Weather History Date:

Sunday, August 4, 2013

  Actual Average Record
Temperature  
Mean Temperature 66 °F 73 °F  
Max Temperature 81 °F 83 °F 91 °F (2016)
Min Temperature 51 °F 62 °F 51 °F (2013)
Degree Days  
Heating Degree Days 0 0  
Month to date heating degree days 0 0  
Since 1 June heating degree days 51 28  
Since 1 July heating degree days 9 4  
Cooling Degree Days 1 8  
Month to date cooling degree days 18 32  
Year to date cooling degree days 520 518  
Since 1 June cooling degree days 465 469  
Growing Degree Days 16 (Base 50)    
Moisture  
Dew Point 54 °F    
Average Humidity 70    
Maximum Humidity 100    
Minimum Humidity 39    
Precipitation  
Precipitation 0.00 in 0.15 in 1.56 in (2012)
Month to date precipitation T 0.58  
Sea Level Pressure  
Sea Level Pressure 30.13 in    
Wind  
Wind Speed 5 mph (SE)    
Max Wind Speed 16 mph    
Max Gust Speed 24 mph    
Visibility 10 miles    
Events      
T = Trace of Precipitation, MM = Missing Value Source: NWS Daily Summary

Daily Weather History Graph

Daily Weather History Graph

Search for Another Location

Airport or City:

Trip Planner

Search our weather history database for the weather conditions in past years. The results will help you decide how hot, cold, wet, or windy it might be!

Date:

Astronomy

Aug. 04, 2013 Rise Set
Actual Time 6:11 AM CDT 8:29 PM CDT
Civil Twilight 5:40 AM CDT 9:00 PM CDT
Nautical Twilight 5:01 AM CDT 9:38 PM CDT
Astronomical Twilight 4:18 AM CDT 10:21 PM CDT
Moon 4:12 AM CDT (8/4) 6:52 PM CDT (8/4)
Length of Visible Light 15h 20m
Length of Day
14h 17m
Waning Crescent, 4% of the Moon is Illuminated
Aug 4
Waning Crescent
Aug 6
New
Aug 14
First Quarter
Aug 20
Full
Aug 28
Last Quarter

Hourly Weather History & Observations

Time (CDT) Temp. Heat Index Dew Point Humidity Pressure Visibility Wind Dir Wind Speed Gust Speed Precip Events Conditions
12:53 AM 57.0 °F - 54.0 °F 89% 30.19 in 10.0 mi Calm Calm - N/A   Clear
1:53 AM 55.9 °F - 53.1 °F 90% 30.18 in 10.0 mi Calm Calm - N/A   Clear
2:53 AM 57.0 °F - 54.0 °F 89% 30.15 in 10.0 mi North 4.6 mph - N/A   Clear
3:53 AM 57.9 °F - 53.1 °F 84% 30.16 in 10.0 mi Calm Calm - N/A   Clear
4:53 AM 53.1 °F - 51.1 °F 93% 30.17 in 10.0 mi Calm Calm - N/A   Clear
5:53 AM 52.0 °F - 51.1 °F 97% 30.18 in 10.0 mi Calm Calm - N/A   Clear
6:53 AM 53.1 °F - 51.1 °F 93% 30.19 in 8.0 mi Calm Calm - N/A   Clear
7:53 AM 62.1 °F - 55.0 °F 78% 30.19 in 10.0 mi Calm Calm - N/A   Clear
8:53 AM 66.0 °F - 55.0 °F 68% 30.19 in 10.0 mi East 4.6 mph - N/A   Clear
9:53 AM 72.0 °F - 55.0 °F 55% 30.19 in 10.0 mi SSE 5.8 mph - N/A   Clear
10:53 AM 73.9 °F - 55.0 °F 52% 30.18 in 10.0 mi SSE 6.9 mph - N/A   Clear
11:53 AM 77.0 °F - 54.0 °F 45% 30.17 in 10.0 mi SSE 11.5 mph - N/A   Clear
12:53 PM 78.1 °F - 53.1 °F 42% 30.14 in 10.0 mi SE 15.0 mph 24.2 mph N/A   Clear
1:53 PM 79.0 °F - 53.1 °F 40% 30.15 in 10.0 mi SE 6.9 mph - N/A   Partly Cloudy
2:53 PM 78.1 °F - 52.0 °F 40% 30.11 in 10.0 mi South 8.1 mph - N/A   Clear
3:53 PM 80.1 °F 80.2 °F 55.9 °F 43% 30.09 in 10.0 mi South 11.5 mph - N/A   Clear
4:53 PM 79.0 °F - 53.1 °F 40% 30.09 in 10.0 mi Variable 4.6 mph - N/A   Clear
5:53 PM 79.0 °F - 55.0 °F 44% 30.08 in 10.0 mi SSE 6.9 mph - N/A   Clear
6:53 PM 78.1 °F - 55.9 °F 46% 30.06 in 10.0 mi SE 8.1 mph - N/A   Clear
7:53 PM 75.0 °F - 55.9 °F 51% 30.06 in 10.0 mi ESE 3.5 mph - N/A   Clear
8:53 PM 69.1 °F - 57.0 °F 65% 30.06 in 10.0 mi Calm Calm - N/A   Clear
9:53 PM 66.9 °F - 57.0 °F 70% 30.06 in 10.0 mi SE 3.5 mph - N/A   Clear
10:53 PM 66.0 °F - 57.0 °F 73% 30.06 in 10.0 mi SSE 4.6 mph - N/A   Clear
11:53 PM 64.0 °F - 57.0 °F 78% 30.04 in 10.0 mi SSE 4.6 mph - N/A   Clear